Wind_Speed
3 2 6 4 3 4 1 1 3 4 5 2 11 3 6 10 1 4 18 20 19 21 19 19 18 16 13 17 17 15 17 18 16 11 11 11 12 14 14 15 16 17 17 18 18 18 17 18 19
2 1 3 1 4 4 2 2 4 3 7 16 13 11 8 4 7 20 24 24 20 19 18 17 15 15 15 15 16 17 17 16 15 11 13 13 13 14 15 15 16 16 16 18 18 19 18 22 21
2 1 2 3 2 3 4 2 7 15 23 6 6 12 5 4 17 25 24 25 21 19 18 16 18 16 15 15 13 14 14 15 15 14 13 14 14 15 16 16 16 16 16 17 19 20 20 18 16
1 2 3 4 6 4 5 7 14 18 8 5 17 8 11 5 20 20 24 23 20 18 17 18 19 20 19 19 17 11 12 14 15 14 14 14 15 15 15 15 15 16 14 15 18 18 14 18 16
4 3 4 4 5 4 9 5 9 9 10 12 15 6 6 16 15 22 22 20 20 19 18 19 19 20 19 17 12 13 12 14 14 14 14 14 15 15 14 14 15 14 14 15 16 16 19 15 13
4 3 4 3 5 8 4 9 4 9 14 18 17 13 3 8 19 23 22 21 19 19 19 18 19 17 16 15 14 13 12 14 14 14 14 14 14 14 13 13 13 14 13 15 14 16 14 16 12
5 3 3 4 2 7 7 10 7 14 16 12 18 5 9 20 22 23 23 22 21 19 18 19 19 17 16 15 15 13 12 13 15 14 15 15 13 13 11 12 13 14 13 14 15 15 16 15 12
6 3 4 3 6 2 7 5 4 10 4 23 21 6 10 27 24 22 20 21 20 19 19 22 19 17 14 14 14 14 13 14 15 14 15 15 14 14 13 13 14 15 14 15 16 14 13 11 9
5 3 3 7 9 5 12 5 9 4 15 10 7 21 31 29 26 21 23 20 19 20 19 20 18 18 17 15 14 14 13 14 14 14 13 14 16 15 16 17 16 15 15 15 14 12 12 10 8
3 3 5 8 7 6 4 4 3 7 16 6 22 27 32 30 28 28 25 25 23 22 21 19 18 16 16 16 15 16 15 16 15 17 18 16 16 17 19 20 20 18 17 16 16 14 13 11 7
3 4 3 10 14 9 7 0 7 16 11 17 33 33 36 33 29 28 25 26 24 23 20 20 18 18 17 15 17 18 21 19 16 16 18 16 16 18 19 18 16 15 15 13 13 11 8 6 5
1 3 7 10 11 8 9 5 8 10 11 26 34 43 41 36 33 30 27 25 26 24 21 20 19 17 16 17 20 20 19 18 16 14 16 16 16 17 15 12 10 9 8 10 10 8 6 5 6
1 2 5 9 9 7 14 8 7 9 16 29 38 40 36 37 34 29 26 20 22 24 20 20 20 19 17 20 21 18 16 14 13 15 16 17 17 14 10 9 7 5 9 11 11 9 10 8 5
6 6 12 8 8 9 8 4 8 6 17 31 36 36 36 34 32 30 28 24 23 23 20 22 21 20 19 21 19 17 14 13 14 15 15 15 11 10 10 8 5 5 6 13 11 9 7 7 6
11 6 4 6 9 6 9 2 6 8 22 32 33 31 36 35 32 33 29 24 22 21 19 24 25 21 21 19 18 18 16 15 13 11 11 9 11 10 8 8 8 7 9 9 9 6 5 5 4
2 2 0 5 5 4 8 4 6 6 19 18 30 28 38 33 33 30 29 24 25 24 20 24 25 22 21 18 20 21 18 17 14 10 11 9 8 8 7 7 7 6 5 4 6 3 4 6 7
3 3 4 1 11 5 7 2 7 11 18 20 29 30 32 31 30 27 28 26 24 24 23 27 25 23 20 19 21 17 18 20 14 15 12 12 11 9 9 9 8 5 4 4 7 5 4 9 10
6 1 2 5 7 5 10 7 6 14 17 21 23 27 33 31 30 26 27 27 23 24 24 23 26 21 19 17 20 19 21 20 15 17 15 11 14 12 9 12 9 7 6 5 8 9 6 7 7
4 4 7 3 7 5 12 7 7 14 12 20 24 29 30 32 27 26 28 24 25 27 24 22 25 23 23 19 19 24 22 20 15 15 14 12 14 11 11 11 9 10 8 6 9 5 7 7 3
5 3 5 1 7 2 4 11 5 11 13 21 26 26 34 30 30 31 29 26 28 24 23 21 22 24 22 24 23 19 19 19 12 12 11 8 8 10 11 10 12 13 12 9 9 7 8 6 5
2 7 4 4 6 2 3 4 5 3 6 17 22 30 33 35 32 34 31 28 28 28 26 26 22 26 25 28 23 17 19 19 18 15 14 10 7 10 8 10 9 12 15 11 12 11 8 6 5
5 9 12 6 5 3 8 4 4 5 11 10 22 27 31 34 33 37 32 31 31 30 27 25 22 24 27 27 29 20 21 19 19 15 13 11 9 10 10 6 5 10 11 12 14 15 13 6 5
9 14 12 1 5 2 3 2 3 4 2 7 18 22 29 37 31 36 37 33 30 32 29 25 24 23 27 32 30 22 23 19 18 17 15 12 11 14 12 10 5 6 11 11 13 15 17 11 6
7 5 8 6 4 2 5 6 4 3 4 4 16 26 30 32 32 32 34 33 30 34 30 27 26 26 29 32 31 27 25 24 20 17 15 14 11 13 13 14 9 9 13 14 11 10 10 12 8
7 7 2 2 3 5 3 2 1 2 2 3 9 26 30 31 30 29 34 36 31 34 32 30 27 27 30 31 29 32 27 28 20 19 17 16 15 15 14 15 13 10 11 14 12 10 8 9 8
5 8 6 5 4 5 1 2 4 3 1 5 10 11 25 28 30 31 32 34 33 34 34 31 29 28 30 32 30 31 30 27 22 20 20 20 20 15 13 14 14 12 11 11 12 13 10 10 11
4 2 3 7 4 2 2 2 1 4 3 7 9 9 9 19 25 30 31 33 34 34 35 32 32 29 27 31 32 32 33 28 26 21 20 21 21 20 16 17 11 12 11 12 13 13 13 13 14
3 5 2 4 3 2 4 4 4 5 1 3 5 5 4 12 19 28 34 34 35 35 33 31 32 32 26 29 35 35 36 32 29 24 23 21 19 16 18 17 13 14 13 12 13 13 12 12 14
3 2 7 6 3 5 2 6 5 6 5 2 4 8 6 5 17 23 30 35 39 31 32 33 31 35 30 28 33 36 37 33 33 30 26 24 23 21 19 17 18 22 22 16 16 17 16 15 13
2 3 5 5 4 1 3 5 2 5 3 6 7 4 2 6 5 19 26 30 32 32 32 36 36 37 33 28 31 37 38 35 33 32 30 26 25 22 21 19 17 15 20 18 17 17 17 18 18
Wind_Direction
71 356 341 338 61 81 67 194 149 155 136 164 165 144 118 56 43 146 135 148 145 142 142 145 144 140 134 143 144 136 131 131 125 121 126 127 125 123 123 120 116 116 118 122 119 117 114 110 107
110 349 321 342 76 69 26 65 164 186 137 126 104 120 56 55 104 133 145 154 145 146 143 141 136 131 133 140 138 135 128 129 128 146 128 125 125 125 124 124 118 116 117 117 117 112 114 111 107
87 232 32 85 88 72 148 147 127 128 134 118 105 80 66 87 130 137 149 151 151 144 140 136 133 125 128 124 124 133 136 132 133 131 126 121 124 131 128 126 124 123 120 120 117 117 117 114 116
86 93 65 68 82 33 83 170 139 133 147 75 113 70 92 103 135 147 149 149 152 151 147 142 136 133 128 127 122 123 129 132 133 128 123 118 123 127 126 125 124 125 124 125 124 119 118 117 112
52 60 58 72 46 41 10 115 177 125 129 114 107 112 80 151 140 147 156 157 161 156 152 148 146 144 141 143 148 148 139 135 132 128 123 121 125 124 121 124 123 127 125 128 129 119 115 111 103
61 72 49 56 32 346 12 351 243 117 117 101 104 100 73 180 157 153 155 158 163 161 158 153 151 153 152 155 153 143 137 136 130 131 129 129 128 127 121 119 121 122 128 133 134 124 116 114 105
100 67 109 90 68 359 338 325 198 129 123 119 134 87 141 160 162 154 160 159 162 163 163 158 153 156 154 155 147 140 134 133 133 132 132 129 126 121 116 119 121 124 129 135 134 122 116 118 106
94 95 114 140 153 245 259 278 182 96 114 144 133 150 170 167 164 160 158 161 163 161 159 155 157 156 157 153 148 146 145 137 135 127 128 120 123 123 120 119 123 126 131 138 139 130 125 120 114
80 59 138 162 155 213 269 232 158 128 141 162 195 161 160 157 161 164 159 163 166 162 160 163 161 163 163 151 149 150 148 148 136 129 124 121 115 118 114 114 116 122 128 137 142 132 127 133 122
96 111 200 168 181 190 197 345 303 174 169 104 115 147 157 156 165 165 168 165 171 166 166 167 165 164 159 156 158 153 145 139 136 128 126 122 119 118 112 107 105 108 109 114 129 135 136 136 137
141 174 139 172 176 152 172 180 302 178 185 162 146 160 167 164 171 174 167 169 168 164 168 168 167 163 163 161 156 147 135 132 126 128 132 128 129 126 119 111 108 107 108 112 118 121 121 127 145
188 293 247 156 166 148 148 338 298 207 195 178 164 164 167 170 174 177 173 173 169 172 168 167 169 167 163 159 156 147 141 140 136 132 133 132 133 134 128 114 104 96 114 121 125 127 116 121 150
180 189 136 175 157 198 166 229 281 196 172 174 164 167 174 176 178 183 180 174 172 175 166 169 169 167 167 161 156 154 149 146 138 137 136 136 132 134 133 124 115 111 107 117 128 117 100 102 130
116 67 114 156 159 149 152 234 350 166 149 163 164 175 180 184 184 184 188 182 183 183 181 178 169 165 164 170 167 163 161 153 147 142 142 146 153 155 149 148 142 125 118 129 125 124 106 106 82
118 98 118 144 166 146 140 288 204 216 162 169 172 179 185 187 188 187 184 186 189 186 182 176 168 173 175 177 180 179 167 157 155 156 159 154 159 157 160 153 142 140 125 120 140 147 170 170 118
92 76 163 153 187 199 163 238 238 181 177 179 174 179 186 189 194 198 196 191 193 191 193 180 183 188 179 174 173 175 173 176 174 176 175 175 174 183 177 177 161 152 170 147 177 190 196 175 173
258 167 229 224 195 146 180 224 203 181 199 190 178 175 177 188 192 200 199 197 197 192 192 188 193 191 190 187 182 180 178 173 175 180 181 199 200 207 206 196 199 213 181 168 186 214 173 146 162
185 223 277 216 179 195 192 251 195 164 172 178 189 181 184 185 194 201 198 200 198 192 187 193 194 197 190 194 194 186 177 182 188 185 191 212 210 206 212 208 213 211 198 190 198 215 193 171 165
133 168 205 245 179 154 199 219 211 192 180 170 180 185 187 191 194 199 196 203 196 195 191 205 206 204 198 195 193 186 188 190 185 189 208 203 212 224 214 206 216 219 216 198 181 187 197 183 214
203 190 216 83 156 151 190 227 198 185 203 181 176 184 192 190 192 198 199 201 201 199 200 188 188 182 200 205 180 194 207 195 176 178 192 191 196 213 222 241 232 222 213 208 201 188 172 168 160
255 199 190 195 158 203 341 282 178 234 203 196 190 188 192 196 193 196 201 203 205 202 200 193 188 194 189 186 191 192 186 185 199 201 207 206 226 232 223 220 227 205 203 212 213 214 203 183 176
253 181 183 207 102 239 169 275 271 179 204 195 204 198 198 198 197 198 201 202 209 209 202 202 200 195 196 193 196 196 196 200 204 209 202 219 232 214 216 202 184 192 206 219 221 222 224 211 211
222 170 184 200 100 62 320 60 257 104 249 228 216 218 203 196 197 200 203 209 208 212 207 208 204 195 192 192 197 199 204 210 215 214 210 225 239 226 224 217 223 216 199 205 221 222 224 219 213
128 78 39 42 78 3 231 159 323 6 307 289 221 217 212 207 207 206 205 210 215 213 211 212 210 204 193 197 206 208 210 210 216 218 217 225 222 216 220 221 230 215 216 206 199 199 200 210 199
77 74 6 17 19 220 147 74 215 317 323 325 284 208 213 215 208 204 206 208 214 215 214 214 214 211 204 206 211 213 215 210 221 222 220 223 227 226 233 224 224 221 214 208 213 208 210 213 218
166 155 150 182 192 242 264 268 212 201 356 36 57 212 209 214 213 209 208 208 214 217 216 218 218 217 213 213 212 211 208 214 221 225 229 228 232 234 236 223 229 214 213 221 225 229 240 236 236
185 107 170 104 10 73 282 214 315 177 20 7 55 110 166 206 209 215 218 214 215 215 221 222 224 220 220 219 214 211 210 218 221 224 236 232 237 240 233 234 228 211 217 228 231 235 241 247 245
120 149 71 21 134 208 302 281 229 229 319 326 356 30 191 212 210 210 217 215 215 214 224 225 227 226 226 226 218 214 213 218 223 226 231 226 230 224 223 229 240 237 234 245 245 236 233 241 246
25 65 54 104 114 152 189 265 212 189 193 235 273 320 294 226 219 217 217 219 215 223 223 227 226 223 224 226 217 215 215 220 224 229 233 235 232 235 234 236 243 249 241 247 248 237 240 244 253
188 138 128 119 218 106 144 270 78 136 187 268 273 0 53 3 268 223 212 214 215 213 236 233 225 222 224 225 219 215 218 224 226 231 232 233 234 234 236 243 239 231 225 237 246 247 249 251 254
Height
1502 1503 1503 1502 1511 1508 1517 1512 1503 1506 1508 1508 1511 1514 1516 1516 1520 1532 1526 1530 1532 1535 1536 1538 1539 1542 1543 1544 1543 1546 1545 1546 1547 1547 1549 1550 1551 1551 1553 1554 1554 1555 1556 1556 1557 1558 1559 1560 1560
1502 1503 1504 1503 1513 1525 1521 1507 1509 1506 1505 1510 1512 1515 1516 1522 1521 1524 1528 1532 1535 1537 1539 1540 1542 1543 1546 1546 1547 1547 1547 1548 1548 1550 1552 1552 1553 1554 1556 1556 1557 1558 1559 1558 1559 1560 1563 1563 1564
1502 1502 1504 1507 1515 1524 1526 1510 1508 1507 1508 1510 1513 1516 1521 1524 1525 1528 1531 1534 1536 1539 1541 1543 1544 1546 1548 1548 1549 1549 1549 1550 1552 1553 1554 1554 1554 1556 1558 1558 1559 1560 1561 1561 1562 1563 1566 1566 1569
1502 1504 1506 1514 1514 1513 1510 1511 1509 1507 1511 1510 1513 1520 1526 1527 1528 1530 1533 1536 1538 1541 1543 1545 1547 1549 1550 1549 1551 1552 1552 1553 1554 1555 1556 1556 1557 1559 1560 1561 1561 1562 1564 1564 1565 1567 1568 1570 1571
1502 1503 1513 1520 1517 1516 1518 1514 1515 1509 1511 1513 1514 1524 1529 1532 1532 1532 1535 1538 1540 1542 1545 1547 1549 1551 1552 1552 1553 1555 1555 1556 1557 1557 1558 1559 1561 1563 1564 1564 1564 1565 1565 1566 1569 1571 1572 1573 1574
1502 1506 1519 1529 1526 1523 1521 1519 1516 1513 1514 1517 1521 1523 1532 1533 1534 1535 1537 1539 1542 1544 1547 1548 1550 1552 1554 1555 1556 1556 1557 1558 1559 1560 1561 1562 1564 1565 1567 1567 1568 1567 1568 1570 1573 1574 1575 1576 1577
1504 1510 1524 1527 1530 1526 1524 1522 1516 1513 1516 1522 1522 1527 1533 1534 1536 1537 1539 1541 1544 1547 1548 1549 1552 1554 1556 1557 1558 1558 1560 1561 1562 1563 1564 1566 1567 1567 1569 1570 1569 1570 1572 1573 1576 1577 1578 1579 1580
1506 1511 1524 1527 1528 1530 1526 1522 1520 1518 1519 1520 1524 1527 1533 1534 1537 1540 1542 1544 1546 1548 1550 1552 1554 1556 1558 1559 1560 1561 1562 1563 1564 1566 1566 1568 1569 1570 1571 1572 1572 1573 1575 1576 1578 1580 1581 1581 1583
1508 1516 1525 1525 1527 1527 1523 1521 1520 1518 1519 1521 1522 1522 1527 1533 1538 1541 1543 1545 1547 1549 1552 1554 1556 1558 1561 1561 1562 1563 1564 1566 1568 1568 1570 1572 1572 1573 1574 1575 1576 1577 1578 1580 1581 1583 1583 1585 1587
1508 1519 1517 1514 1517 1520 1522 1522 1521 1521 1521 1524 1523 1527 1531 1534 1538 1540 1542 1544 1547 1549 1552 1555 1557 1559 1562 1563 1564 1565 1566 1567 1569 1570 1572 1574 1575 1576 1577 1579 1579 1580 1581 1582 1584 1586 1587 1589 1589
1508 1513 1511 1513 1516 1518 1522 1523 1521 1518 1521 1521 1521 1527 1533 1535 1539 1541 1543 1545 1547 1550 1553 1556 1559 1561 1563 1565 1566 1567 1568 1570 1571 1572 1573 1576 1577 1579 1580 1582 1584 1585 1585 1586 1587 1588 1590 1590 1591
1509 1508 1510 1514 1514 1516 1517 1520 1523 1519 1519 1521 1522 1524 1530 1535 1538 1542 1544 1546 1548 1550 1553 1556 1560 1562 1564 1566 1568 1570 1571 1572 1573 1575 1576 1578 1580 1581 1582 1583 1585 1587 1587 1588 1589 1589 1591 1591 1592
1510 1509 1508 1513 1517 1518 1518 1522 1524 1519 1521 1524 1527 1531 1533 1536 1539 1543 1546 1548 1549 1551 1553 1557 1560 1562 1565 1567 1570 1572 1573 1574 1575 1577 1578 1580 1582 1583 1584 1585 1587 1587 1588 1589 1589 1590 1592 1592 1592
1509 1508 1510 1514 1518 1519 1521 1523 1523 1521 1523 1526 1529 1532 1534 1536 1538 1543 1545 1547 1549 1552 1554 1557 1560 1563 1565 1568 1571 1573 1574 1576 1577 1579 1580 1582 1583 1584 1585 1586 1587 1588 1589 1590 1590 1592 1592 1593 1594
1511 1513 1515 1516 1517 1520 1522 1527 1523 1520 1523 1525 1529 1532 1534 1537 1539 1540 1542 1546 1548 1551 1555 1557 1558 1562 1566 1569 1571 1573 1575 1577 1579 1580 1581 1583 1584 1585 1587 1588 1589 1590 1590 1590 1591 1592 1593 1593 1594
1512 1515 1522 1516 1517 1517 1522 1528 1517 1519 1522 1526 1531 1534 1534 1536 1538 1541 1543 1546 1549 1551 1554 1557 1560 1563 1566 1568 1570 1573 1576 1578 1579 1581 1583 1584 1585 1587 1588 1589 1590 1591 1591 1591 1592 1592 1592 1593 1594
1518 1523 1519 1517 1515 1515 1520 1522 1516 1518 1521 1522 1526 1532 1535 1537 1539 1540 1543 1545 1548 1551 1553 1556 1558 1562 1565 1568 1571 1574 1576 1578 1580 1582 1584 1585 1587 1588 1589 1590 1591 1592 1592 1592 1592 1592 1593 1593 1594
1523 1522 1517 1517 1514 1515 1519 1520 1516 1516 1518 1521 1524 1528 1531 1534 1535 1538 1541 1545 1548 1551 1552 1555 1558 1562 1565 1567 1571 1575 1576 1578 1579 1582 1584 1585 1587 1589 1590 1590 1592 1592 1592 1593 1593 1592 1593 1594 1595
1506 1513 1516 1510 1508 1513 1514 1516 1517 1515 1518 1519 1522 1525 1528 1532 1534 1537 1541 1544 1548 1550 1552 1554 1556 1560 1563 1567 1570 1574 1575 1577 1579 1581 1583 1585 1587 1588 1590 1590 1591 1592 1592 1592 1593 1593 1593 1594 1595
1509 1510 1514 1507 1508 1512 1514 1514 1513 1514 1516 1517 1519 1524 1526 1529 1532 1536 1540 1543 1546 1548 1551 1553 1555 1559 1562 1567 1571 1573 1575 1577 1580 1581 1583 1584 1586 1587 1589 1590 1590 1591 1592 1592 1593 1594 1594 1595 1595
1505 1510 1511 1506 1507 1510 1513 1518 1514 1513 1516 1518 1520 1521 1523 1525 1529 1533 1536 1540 1544 1546 1549 1552 1554 1558 1562 1566 1570 1572 1575 1576 1579 1580 1582 1584 1585 1586 1588 1589 1589 1591 1592 1592 1592 1594 1594 1595 1596
1511 1493 1496 1495 1510 1531 1511 1535 1514 1513 1512 1515 1517 1519 1521 1524 1528 1531 1533 1536 1540 1543 1547 1551 1553 1556 1560 1564 1568 1570 1573 1575 1577 1580 1582 1582 1584 1585 1587 1589 1589 1589 1590 1591 1592 1593 1593 1595 1596
1497 1488 1491 1494 1512 1517 1516 1530 1514 1515 1520 1516 1514 1516 1519 1521 1524 1527 1530 1533 1535 1541 1545 1549 1552 1555 1558 1562 1566 1569 1572 1574 1577 1579 1580 1581 1582 1583 1585 1588 1588 1588 1589 1590 1591 1592 1592 1593 1595
1480 1494 1505 1512 1522 1541 1523 1527 1530 1524 1521 1514 1511 1511 1513 1517 1520 1524 1528 1532 1535 1539 1543 1546 1549 1553 1556 1560 1563 1567 1569 1572 1575 1577 1578 1579 1581 1582 1584 1586 1588 1588 1588 1589 1590 1590 1591 1592 1594
1492 1508 1541 1541 1545 1544 1521 1525 1529 1519 1515 1513 1506 1504 1510 1513 1517 1519 1522 1526 1531 1535 1539 1543 1546 1550 1554 1557 1560 1563 1567 1569 1572 1575 1577 1578 1579 1580 1582 1584 1586 1586 1587 1588 1589 1590 1590 1591 1592
1494 1505 1533 1543 1552 1538 1520 1529 1525 1517 1514 1510 1505 1502 1505 1510 1513 1516 1519 1522 1527 1531 1535 1539 1543 1546 1550 1553 1556 1560 1564 1566 1569 1572 1575 1576 1577 1579 1581 1582 1584 1584 1585 1587 1588 1588 1588 1589 1591
1493 1506 1500 1532 1537 1539 1535 1522 1519 1515 1513 1509 1505 1504 1502 1504 1506 1512 1517 1519 1523 1528 1531 1534 1539 1543 1546 1549 1553 1556 1560 1563 1566 1569 1571 1573 1575 1577 1579 1580 1582 1582 1583 1584 1585 1585 1586 1587 1588
1483 1493 1513 1526 1538 1538 1537 1528 1524 1512 1512 1508 1505 1503 1501 1500 1501 1505 1508 1513 1518 1522 1527 1531 1535 1539 1542 1545 1548 1552 1555 1559 1562 1565 1567 1570 1572 1574 1575 1577 1579 1581 1582 1582 1582 1583 1584 1585 1586
1494 1502 1516 1525 1535 1548 1548 1536 1506 1508 1509 1508 1505 1503 1501 1499 1497 1499 1501 1506 1514 1519 1523 1526 1530 1534 1537 1540 1544 1547 1550 1555 1558 1561 1564 1567 1569 1570 1572 1574 1576 1577 1579 1580 1580 1581 1582 1583 1583
1488 1494 1506 1526 1532 1539 1541 1533 1505 1507 1508 1507 1506 1502 1501 1497 1494 1492 1496 1500 1507 1512 1515 1520 1525 1529 1532 1536 1539 1542 1547 1550 1553 1557 1560 1563 1565 1567 1568 1570 1572 1574 1575 1577 1577 1578 1579 1580 1580